SV1BYK-4 Weather Reports


Display with metric or nautical units.
time (UTC)temp
F
wind
direction
speed
MPH
gust
MPH
rain 1hr
in
rain 24hr
in
rain mn
in
humidity
%
barometer
mb
20260904144811 90 289 8.0 22.0 0.00 0.00 0.00 34 990.3
20260904143911 92 334 2.0 22.0 0.00 0.00 0.00 33 990.2
20260904143011 92 330 4.0 25.0 0.00 0.00 0.00 33 990.4
20260904142111 92 277 3.0 9.0 0.00 0.00 0.00 32 990.3
20260904140311 91 327 8.0 18.0 0.00 0.00 0.00 33 990.3
20260904135411 92 321 4.0 15.0 0.00 0.00 0.00 32 990.2
20260904134511 93 297 4.0 17.0 0.00 0.00 0.00 32 990.2
20260904133611 93 247 7.0 15.0 0.00 0.00 0.00 33 990.1
20260904132711 92 251 8.0 14.0 0.00 0.00 0.00 34 990.1
20260904131811 93 292 2.0 22.0 0.00 0.00 0.00 33 990.2
20260904130911 92 279 6.0 13.0 0.00 0.00 0.00 33 990.2
20260904130011 93 282 4.0 11.0 0.00 0.00 0.00 33 990.2
20260904125111 94 340 2.0 17.0 0.00 0.00 0.00 33 990.1
20260904124211 93 258 2.0 11.0 0.00 0.00 0.00 33 990.2
20260904123311 92 242 3.0 9.0 0.00 0.00 0.00 33 990.2
20260904122411 93 273 4.0 18.0 0.00 0.00 0.00 33 990.4
20260904121511 93 270 2.0 8.0 0.00 0.00 0.00 33 990.4
20260904120611 93 274 2.0 14.0 0.00 0.00 0.00 33 990.5
20260904115711 91 281 2.0 22.0 0.00 0.00 0.00 33 990.6
20260904113911 92 240 2.0 9.0 0.00 0.00 0.00 33 990.8
20260904112111 92 279 2.0 7.0 0.00 0.00 0.00 34 990.8
20260904111211 92 267 1.0 8.0 0.00 0.00 0.00 33 990.9
20260904110311 91 255 4.0 8.0 0.00 0.00 0.00 35 990.9
20260904105411 92 263 2.0 7.0 0.00 0.00 0.00 34 990.9
20260904104511 90 293 2.0 15.0 0.00 0.00 0.00 36 990.9
20260904103611 91 302 4.0 16.0 0.00 0.00 0.00 36 991.0
20260904102711 89 287 8.0 23.0 0.00 0.00 0.00 40 990.9
20260904101811 91 234 4.0 14.0 0.00 0.00 0.00 39 990.8
20260904100011 90 272 2.0 16.0 0.00 0.00 0.00 39 990.9
20260904095111 90 279 4.0 21.0 0.00 0.00 0.00 38 991.0
20260904094211 89 287 11.0 25.0 0.00 0.00 0.00 40 991.0
20260904093311 89 326 4.0 24.0 0.00 0.00 0.00 42 990.9
20260904092411 87 320 9.0 25.0 0.00 0.00 0.00 45 990.9
20260904091511 89 303 3.0 17.0 0.00 0.00 0.00 42 990.9
20260904085711 90 299 4.0 16.0 0.00 0.00 0.00 41 990.9
20260904084811 90 252 2.0 11.0 0.00 0.00 0.00 41 990.9
20260904083911 91 292 2.0 15.0 0.00 0.00 0.00 41 990.9
20260904082111 89 284 4.0 15.0 0.00 0.00 0.00 42 991.0
20260904081211 89 291 2.0 13.0 0.00 0.00 0.00 43 991.0
20260904080311 87 300 4.0 20.0 0.00 0.00 0.00 44 990.9
20260904074511 85 332 9.0 23.0 0.00 0.00 0.00 48 990.8
20260904073611 85 286 8.0 25.0 0.00 0.00 0.00 49 990.7
20260904072711 85 315 10.0 22.0 0.00 0.00 0.00 50 990.6
20260904071811 85 320 9.0 17.0 0.00 0.00 0.00 50 990.6
20260904070911 86 308 4.0 18.0 0.00 0.00 0.00 48 990.6
20260904070011 85 290 9.0 20.0 0.00 0.00 0.00 49 990.5
20260904064211 85 309 3.0 14.0 0.00 0.00 0.00 48 990.3
20260904063311 86 302 0.0 8.0 0.00 0.00 0.00 46 990.3
20260904062411 84 298 3.0 11.0 0.00 0.00 0.00 49 990.2
20260904061511 83 287 4.0 11.0 0.00 0.00 0.00 52 990.1
20260904060611 83 285 4.0 11.0 0.00 0.00 0.00 52 990.2
20260904055711 83 271 3.0 6.0 0.00 0.00 0.00 52 990.4
20260904054811 82 280 3.0 8.0 0.00 0.00 0.00 54 990.5
20260904053911 81 290 7.0 9.0 0.00 0.00 0.00 55 990.4
20260904053011 81 288 4.0 13.0 0.00 0.00 0.00 55 990.3
20260904052111 81 286 8.0 13.0 0.00 0.00 0.00 55 990.3
20260904051211 80 282 7.0 11.0 0.00 0.00 0.00 56 990.1
20260904045411 80 289 6.0 11.0 0.00 0.00 0.00 57 990.2
20260904044511 79 298 4.0 13.0 0.00 0.00 0.00 57 990.1
20260904043611 79 294 8.0 14.0 0.00 0.00 0.00 57 990.1
20260904041811 79 318 11.0 15.0 0.00 0.00 0.00 57 990.1
20260904040911 79 307 8.0 15.0 0.00 0.00 0.00 57 990.0
20260904040011 79 306 9.0 18.0 0.00 0.00 0.00 57 989.9
20260904035111 79 309 13.0 20.0 0.00 0.00 0.00 58 989.8
20260904034211 79 318 8.0 23.0 0.00 0.00 0.00 58 989.7
20260904033311 80 312 8.0 14.0 0.00 0.00 0.00 56 989.8
20260904032411 80 309 4.0 11.0 0.00 0.00 0.00 54 989.9
20260904031511 80 308 3.0 11.0 0.00 0.00 0.00 54 989.9
20260904030611 80 306 4.0 11.0 0.00 0.00 0.00 54 989.8
20260904025711 80 312 8.0 13.0 0.00 0.00 0.00 54 989.7
20260904023911 79 316 3.0 11.0 0.00 0.00 0.00 53 989.7
20260904023011 80 304 8.0 13.0 0.00 0.00 0.00 52 989.6
20260904022111 79 299 5.0 14.0 0.00 0.00 0.00 53 989.7
20260904021211 79 292 5.0 11.0 0.00 0.00 0.00 54 989.7
20260904020311 80 301 4.0 11.0 0.00 0.00 0.00 53 989.7
20260904013611 80 298 2.0 4.0 0.00 0.00 0.00 51 989.8
20260904012711 80 296 2.0 6.0 0.00 0.00 0.00 51 989.7
20260904011811 80 300 2.0 8.0 0.00 0.00 0.00 50 989.8
20260904010911 81 293 2.0 4.0 0.00 0.00 0.00 45 989.7
20260904010011 80 292 0.0 4.0 0.00 0.00 0.00 45 989.5
20260904005111 80 292 0.0 2.0 0.00 0.00 0.00 46 989.6
20260904003312 80 297 0.0 2.0 0.00 0.00 0.00 45 989.5
20260904002411 80 290 0.0 4.0 0.00 0.00 0.00 44 989.5
20260904001511 80 281 0.0 4.0 0.00 0.00 0.00 44 989.5
20260904000611 81 301 3.0 6.0 0.00 0.00 0.00 47 989.6
20260903235711 81 296 4.0 7.0 0.00 0.00 0.00 46 989.6
20260903234811 81 294 1.0 8.0 0.00 0.00 0.00 45 989.6
20260903233911 82 302 4.0 8.0 0.00 0.00 0.00 44 989.5
20260903233011 82 310 0.0 4.0 0.00 0.00 0.00 41 989.4
20260903232111 82 308 2.0 8.0 0.00 0.00 0.00 41 989.4
20260903231211 82 303 2.0 6.0 0.00 0.00 0.00 40 989.4
20260903230311 82 325 1.0 4.0 0.00 0.00 0.00 40 989.5
20260903225411 82 307 0.0 7.0 0.00 0.00 0.00 39 989.5
20260903223611 83 297 3.0 4.0 0.00 0.00 0.00 38 989.4
20260903222711 83 292 2.0 4.0 0.00 0.00 0.00 39 989.5
20260903221811 83 292 2.0 4.0 0.00 0.00 0.00 39 989.5
20260903220011 83 298 1.0 4.0 0.00 0.00 0.00 39 989.4
20260903215111 83 297 4.0 4.0 0.00 0.00 0.00 39 989.4
20260903214211 82 0 0.0 0.0 0.00 0.00 0.00 40 989.2
20260903212411 83 43 0.0 2.0 0.00 0.00 0.00 40 989.3
20260903211511 83 332 0.0 2.0 0.00 0.00 0.00 40 989.2
20260903210611 82 0 0.0 0.0 0.00 0.00 0.00 40 989.2
20260903205711 82 0 0.0 0.0 0.00 0.00 0.00 40 989.2
20260903204811 83 305 0.0 2.0 0.00 0.00 0.00 39 989.2
20260903203911 83 314 0.0 2.0 0.00 0.00 0.00 39 989.1
20260903203011 83 314 0.0 4.0 0.00 0.00 0.00 39 989.3
20260903202111 83 357 3.0 6.0 0.00 0.00 0.00 39 989.3
20260903201211 83 335 1.0 4.0 0.00 0.00 0.00 39 989.3
20260903200311 83 326 0.0 2.0 0.00 0.00 0.00 40 989.4
20260903195411 83 288 1.0 4.0 0.00 0.00 0.00 39 989.3
20260903194511 83 261 0.0 2.0 0.00 0.00 0.00 39 989.3
20260903193611 83 311 1.0 9.0 0.00 0.00 0.00 39 989.4
20260903192711 84 271 2.0 4.0 0.00 0.00 0.00 38 989.2
20260903191811 84 275 0.0 4.0 0.00 0.00 0.00 38 989.2
20260903190911 84 239 2.0 6.0 0.00 0.00 0.00 37 989.1
20260903190011 84 243 2.0 4.0 0.00 0.00 0.00 38 989.1
20260903184211 85 250 3.0 6.0 0.00 0.00 0.00 38 988.7
20260903183311 85 227 4.0 7.0 0.00 0.00 0.00 38 988.6
20260903182411 85 245 3.0 6.0 0.00 0.00 0.00 39 988.5
20260903181511 85 288 1.0 7.0 0.00 0.00 0.00 39 988.4
20260903180611 85 263 2.0 4.0 0.00 0.00 0.00 39 988.3
20260903175711 85 269 2.0 7.0 0.00 0.00 0.00 39 988.4
20260903174811 85 273 2.0 4.0 0.00 0.00 0.00 39 988.4
20260903173911 85 256 2.0 6.0 0.00 0.00 0.00 39 988.4
20260903173011 85 305 1.0 7.0 0.00 0.00 0.00 39 988.4
20260903172111 85 316 2.0 7.0 0.00 0.00 0.00 39 988.3
20260903171211 86 263 3.0 9.0 0.00 0.00 0.00 39 988.2
20260903170311 86 276 2.0 9.0 0.00 0.00 0.00 39 988.1
20260903165411 86 228 4.0 7.0 0.00 0.00 0.00 39 987.8
20260903164511 86 255 4.0 6.0 0.00 0.00 0.00 39 987.8
20260903163611 87 236 3.0 8.0 0.00 0.00 0.00 39 987.7
20260903161811 87 263 2.0 9.0 0.00 0.00 0.00 38 987.7
20260903160911 88 247 3.0 9.0 0.00 0.00 0.00 37 987.7
20260903160011 89 253 3.0 11.0 0.00 0.00 0.00 36 987.7
20260903155111 89 244 2.0 11.0 0.00 0.00 0.00 36 987.7
20260903154211 90 249 4.0 9.0 0.00 0.00 0.00 36 987.6
20260903153311 90 231 4.0 9.0 0.00 0.00 0.00 36 987.5
20260903151511 89 249 5.0 11.0 0.00 0.00 0.00 38 987.6
20260903150611 89 233 4.0 9.0 0.00 0.00 0.00 38 987.5
20260903145711 90 257 3.0 9.0 0.00 0.00 0.00 38 987.6